AAL1421 KDCA-KBOS

Flight info

Callsign AAL1421
Flight time N/A
Altitude 35000
Route SOOKI6 SWANN BROSS Q419 JFK ROBUC3
Aircraft A320/M-SDE3FGHIRWY/LB1

Departure

Time 2026-05-06 21:31
Airport Ronald Reagan Washington National Airport (KDCA)

Arrival

Time N/A
Airport Boston Logan International Airport (KBOS)
Time Latitude Longitude Altitude Speed Heading
2026-05-06 21:11 38.85667 -77.04221 24 ft 0 kts 201°
2026-05-06 21:21 38.85675 -77.04217 28 ft 2 kts 201°
2026-05-06 21:21 38.85691 -77.04209 24 ft 3 kts 195°
2026-05-06 21:22 38.85708 -77.04206 25 ft 3 kts 159°
2026-05-06 21:22 38.85724 -77.04218 26 ft 3 kts 123°
2026-05-06 21:22 38.85730 -77.04240 27 ft 3 kts 85°
2026-05-06 21:22 38.85726 -77.04260 26 ft 1 kts 56°
2026-05-06 21:23 38.85718 -77.04277 25 ft 2 kts 56°
2026-05-06 21:23 38.85708 -77.04295 26 ft 2 kts 56°
2026-05-06 21:23 38.85700 -77.04311 27 ft 0 kts 73°
2026-05-06 21:26 38.85705 -77.04291 25 ft 4 kts 73°
2026-05-06 21:26 38.85706 -77.04287 27 ft 0 kts 73°
2026-05-06 21:27 38.85707 -77.04284 27 ft 2 kts 73°
2026-05-06 21:27 38.85718 -77.04235 25 ft 9 kts 73°
2026-05-06 21:28 38.85736 -77.04158 24 ft 7 kts 75°
2026-05-06 21:28 38.85742 -77.04129 24 ft 0 kts 76°
2026-05-06 21:28 38.85743 -77.04122 24 ft 4 kts 75°
2026-05-06 21:28 38.85770 -77.04072 25 ft 7 kts 40°
2026-05-06 21:29 38.85807 -77.04052 28 ft 5 kts
2026-05-06 21:29 38.85862 -77.04060 27 ft 12 kts 350°
2026-05-06 21:29 38.85929 -77.04033 25 ft 10 kts 58°
2026-05-06 21:29 38.85969 -77.03968 24 ft 9 kts 25°
2026-05-06 21:30 38.86024 -77.03949 24 ft 8 kts 14°
2026-05-06 21:30 38.86072 -77.03929 24 ft 7 kts 36°
2026-05-06 21:30 38.86074 -77.03872 26 ft 9 kts 142°
2026-05-06 21:30 38.86008 -77.03860 24 ft 10 kts 175°
2026-05-06 21:31 38.85882 -77.03847 28 ft 42 kts 177°
2026-05-06 21:31 38.85353 -77.03799 24 ft 109 kts 175°
2026-05-06 21:31 38.84416 -77.03707 90 ft 154 kts 176°
2026-05-06 21:31 38.83354 -77.03591 766 ft 151 kts 175°
2026-05-06 21:32 38.82319 -77.03396 1475 ft 149 kts 176°
2026-05-06 21:32 38.80054 -77.02905 2262 ft 184 kts 175°
2026-05-06 21:32 38.78674 -77.02608 2548 ft 208 kts 175°
2026-05-06 21:33 38.77167 -77.02280 2905 ft 231 kts 174°
2026-05-06 21:33 38.75657 -77.01429 3614 ft 251 kts 142°
2026-05-06 21:33 38.74679 -76.99461 4070 ft 281 kts 107°
2026-05-06 21:33 38.74452 -76.96914 4759 ft 294 kts 88°
2026-05-06 21:34 38.74465 -76.96599 4859 ft 294 kts 84°
2026-05-06 21:34 38.75027 -76.94064 5641 ft 299 kts 58°
2026-05-06 21:34 38.76219 -76.91830 6435 ft 303 kts 50°
2026-05-06 21:34 38.77479 -76.89641 7194 ft 308 kts 50°
2026-05-06 21:35 38.78759 -76.87413 7983 ft 313 kts 50°
2026-05-06 21:35 38.80062 -76.85136 8786 ft 319 kts 51°
2026-05-06 21:35 38.81377 -76.82834 9530 ft 325 kts 51°
2026-05-06 21:35 38.82719 -76.80478 10239 ft 331 kts 51°
2026-05-06 21:36 38.84142 -76.77983 10511 ft 354 kts 51°
2026-05-06 21:36 38.85636 -76.75358 10873 ft 371 kts 51°
2026-05-06 21:36 38.87173 -76.72646 11571 ft 378 kts 51°
2026-05-06 21:36 38.88727 -76.69897 12333 ft 384 kts 51°
2026-05-06 21:37 38.90298 -76.67116 13120 ft 389 kts 51°
2026-05-06 21:37 38.91898 -76.64285 13907 ft 393 kts 50°
2026-05-06 21:37 38.93483 -76.61479 14528 ft 396 kts 50°
2026-05-06 21:37 38.95177 -76.58476 15142 ft 401 kts 50°
2026-05-06 21:38 38.96797 -76.55601 15734 ft 405 kts 50°
2026-05-06 21:38 38.98483 -76.52612 16331 ft 410 kts 49°
2026-05-06 21:38 39.00155 -76.49649 16926 ft 414 kts 49°
2026-05-06 21:38 39.01282 -76.47650 17295 ft 416 kts 49°